カタログに戻る

BREEZE-M R/B

運用中HEO
NORAD 36500·ROCKET BODY·🇷🇺 Russia

打ち上げ Mar 20, 2010 から Baikonur Cosmodrome

Loading…

次のパス (今後24時間)

TLE

最新Source: Space-Track

元期: Sep 13, 2026, 23:07 UTC

1 36500U 10010B   26256.96385119 -.00000058  00000-0  00000-0 0  9993
2 36500  26.0505 165.0882 6390849 142.1338 287.1913  2.24379299135158

AllMySatでBREEZE-M R/Bをリアルタイム追跡

Download on the App Store